| time (UTC) | temp C | wind direction | speed KPH | gust KPH | rain 1hr cm | rain 24hr cm | rain mn cm | humidity % | barometer mb |
| 20260507124132 | 15 | 7 | 1.6 | 6.4 | 0.00 | 0.00 | 0.00 | 58 | 1016.4 |
| 20260507123633 | 15 | 7 | 3.2 | 6.4 | 0.00 | 0.00 | 0.00 | 59 | 1016.4 |
| 20260507123133 | 15 | 0 | 3.2 | 6.4 | 0.00 | 0.00 | 0.00 | 58 | 1016.4 |
| 20260507122134 | 15 | 0 | 0.0 | 8.0 | 0.00 | 0.00 | 0.00 | 58 | 1016.4 |
| 20260507121631 | 16 | 0 | 3.2 | 9.7 | 0.00 | 0.00 | 0.00 | 58 | 1016.4 |
| 20260507121132 | 16 | 25 | 4.8 | 11.3 | 0.00 | 0.00 | 0.00 | 58 | 1016.4 |
| 20260507120632 | 16 | 25 | 4.8 | 11.3 | 0.00 | 0.00 | 0.00 | 56 | 1016.4 |
| 20260507120134 | 16 | 18 | 4.8 | 9.7 | 0.00 | 0.00 | 0.00 | 55 | 1016.4 |
| 20260507115634 | 16 | 24 | 3.2 | 8.0 | 0.00 | 0.00 | 0.00 | 55 | 1016.4 |
| 20260507115132 | 16 | 302 | 3.2 | 8.0 | 0.00 | 0.00 | 0.00 | 55 | 1016.4 |
| 20260507114632 | 16 | 330 | 3.2 | 9.7 | 0.00 | 0.00 | 0.00 | 56 | 1016.3 |
| 20260507114132 | 16 | 20 | 4.8 | 11.3 | 0.00 | 0.00 | 0.00 | 57 | 1016.4 |
| 20260507113630 | 15 | 299 | 4.8 | 11.3 | 0.00 | 0.00 | 0.00 | 59 | 1016.4 |
| 20260507113132 | 15 | 61 | 6.4 | 9.7 | 0.00 | 0.00 | 0.00 | 58 | 1016.3 |
| 20260507112631 | 15 | 35 | 4.8 | 8.0 | 0.00 | 0.00 | 0.00 | 58 | 1016.4 |
| 20260507112131 | 15 | 295 | 3.2 | 9.7 | 0.00 | 0.00 | 0.00 | 56 | 1016.4 |
| 20260507111633 | 16 | 154 | 1.6 | 9.7 | 0.00 | 0.00 | 0.00 | 57 | 1016.5 |
| 20260507111131 | 16 | 34 | 6.4 | 9.7 | 0.00 | 0.00 | 0.00 | 56 | 1016.5 |
| 20260507110631 | 16 | 338 | 3.2 | 8.0 | 0.00 | 0.00 | 0.00 | 56 | 1016.4 |
| 20260507110132 | 16 | 0 | 4.8 | 8.0 | 0.00 | 0.00 | 0.00 | 55 | 1016.5 |
| 20260507105131 | 17 | 310 | 4.8 | 11.3 | 0.00 | 0.00 | 0.00 | 54 | 1016.5 |
| 20260507104631 | 17 | 32 | 3.2 | 9.7 | 0.00 | 0.00 | 0.00 | 55 | 1016.4 |
| 20260507104132 | 16 | 13 | 6.4 | 9.7 | 0.00 | 0.00 | 0.00 | 58 | 1016.5 |
| 20260507103630 | 16 | 8 | 1.6 | 11.3 | 0.00 | 0.00 | 0.00 | 54 | 1016.5 |
| 20260507102630 | 15 | 337 | 4.8 | 16.1 | 0.00 | 0.00 | 0.00 | 57 | 1016.5 |
| 20260507102131 | 15 | 7 | 6.4 | 16.1 | 0.00 | 0.00 | 0.00 | 59 | 1016.6 |
| 20260507101630 | 15 | 354 | 3.2 | 16.1 | 0.00 | 0.00 | 0.00 | 59 | 1016.6 |
| 20260507101130 | 15 | 75 | 6.4 | 14.5 | 0.00 | 0.00 | 0.00 | 62 | 1016.5 |
| 20260507100130 | 15 | 48 | 8.0 | 16.1 | 0.00 | 0.00 | 0.00 | 61 | 1016.5 |
| 20260507095629 | 15 | 353 | 6.4 | 17.7 | 0.00 | 0.00 | 0.00 | 61 | 1016.5 |
| 20260507095130 | 15 | 113 | 9.7 | 17.7 | 0.00 | 0.00 | 0.00 | 61 | 1016.4 |
| 20260507094629 | 14 | 39 | 4.8 | 11.3 | 0.00 | 0.00 | 0.00 | 63 | 1016.4 |
| 20260507094128 | 14 | 351 | 3.2 | 14.5 | 0.00 | 0.00 | 0.00 | 64 | 1016.4 |
| 20260507093630 | 14 | 31 | 6.4 | 14.5 | 0.00 | 0.00 | 0.00 | 64 | 1016.4 |
| 20260507093129 | 14 | 14 | 4.8 | 14.5 | 0.00 | 0.00 | 0.00 | 66 | 1016.3 |
| 20260507092628 | 13 | 18 | 3.2 | 14.5 | 0.00 | 0.00 | 0.00 | 65 | 1016.4 |
| 20260507092128 | 13 | 78 | 3.2 | 14.5 | 0.00 | 0.00 | 0.00 | 67 | 1016.3 |
| 20260507091629 | 13 | 18 | 6.4 | 14.5 | 0.00 | 0.00 | 0.00 | 65 | 1016.2 |
| 20260507091128 | 13 | 0 | 4.8 | 11.3 | 0.00 | 0.00 | 0.00 | 66 | 1016.2 |
| 20260507090628 | 13 | 337 | 4.8 | 11.3 | 0.00 | 0.00 | 0.00 | 66 | 1016.2 |
| 20260507090127 | 13 | 334 | 4.8 | 9.7 | 0.00 | 0.00 | 0.00 | 67 | 1016.2 |
| 20260507085626 | 13 | 16 | 4.8 | 9.7 | 0.00 | 0.00 | 0.00 | 67 | 1016.2 |
| 20260507085126 | 13 | 21 | 4.8 | 11.3 | 0.00 | 0.00 | 0.00 | 66 | 1016.2 |
| 20260507084626 | 13 | 17 | 6.4 | 11.3 | 0.00 | 0.00 | 0.00 | 67 | 1016.3 |
| 20260507084128 | 12 | 357 | 4.8 | 11.3 | 0.00 | 0.00 | 0.00 | 69 | 1016.2 |
| 20260507083626 | 12 | 20 | 3.2 | 11.3 | 0.00 | 0.00 | 0.00 | 69 | 1016.1 |
| 20260507082625 | 12 | 30 | 3.2 | 14.5 | 0.00 | 0.00 | 0.00 | 70 | 1016.2 |
| 20260507082126 | 12 | 23 | 3.2 | 9.7 | 0.00 | 0.00 | 0.00 | 71 | 1016.2 |
| 20260507081626 | 12 | 354 | 4.8 | 9.7 | 0.00 | 0.00 | 0.00 | 71 | 1016.3 |
| 20260507081125 | 11 | 331 | 3.2 | 8.0 | 0.00 | 0.00 | 0.00 | 72 | 1016.2 |
| 20260507080625 | 11 | 32 | 3.2 | 9.7 | 0.00 | 0.00 | 0.00 | 72 | 1016.1 |
| 20260507080125 | 11 | 351 | 6.4 | 9.7 | 0.00 | 0.00 | 0.00 | 72 | 1016.2 |
| 20260507075625 | 11 | 317 | 3.2 | 9.7 | 0.00 | 0.00 | 0.00 | 73 | 1016.1 |
| 20260507074625 | 11 | 347 | 3.2 | 9.7 | 0.00 | 0.00 | 0.00 | 73 | 1016.0 |
| 20260507074125 | 11 | 0 | 3.2 | 8.0 | 0.00 | 0.00 | 0.00 | 74 | 1016.0 |
| 20260507073626 | 11 | 32 | 3.2 | 11.3 | 0.00 | 0.00 | 0.00 | 74 | 1016.0 |
| 20260507072624 | 10 | 0 | 4.8 | 11.3 | 0.00 | 0.00 | 0.00 | 76 | 1016.0 |
| 20260507072124 | 10 | 358 | 4.8 | 11.3 | 0.00 | 0.00 | 0.00 | 76 | 1016.0 |
| 20260507071624 | 10 | 25 | 4.8 | 9.7 | 0.00 | 0.00 | 0.00 | 77 | 1016.0 |
| 20260507070624 | 10 | 0 | 4.8 | 11.3 | 0.00 | 0.00 | 0.00 | 79 | 1016.0 |
| 20260507070124 | 10 | 8 | 4.8 | 16.1 | 0.00 | 0.00 | 0.00 | 80 | 1015.9 |
| 20260507065623 | 9 | 30 | 4.8 | 16.1 | 0.00 | 0.00 | 0.00 | 80 | 1015.9 |
| 20260507064623 | 8 | 39 | 6.4 | 16.1 | 0.00 | 0.00 | 0.00 | 84 | 1015.8 |
| 20260507064125 | 8 | 0 | 6.4 | 16.1 | 0.00 | 0.00 | 0.00 | 85 | 1015.8 |
| 20260507063122 | 8 | 21 | 6.4 | 8.0 | 0.00 | 0.00 | 0.00 | 89 | 1015.8 |
| 20260507062623 | 7 | 20 | 4.8 | 8.0 | 0.00 | 0.00 | 0.00 | 91 | 1015.8 |
| 20260507062123 | 7 | 348 | 3.2 | 6.4 | 0.00 | 0.00 | 0.00 | 92 | 1015.8 |
| 20260507061620 | 7 | 25 | 1.6 | 8.0 | 0.00 | 0.00 | 0.00 | 93 | 1015.8 |
| 20260507061118 | 7 | 25 | 3.2 | 8.0 | 0.00 | 0.00 | 0.00 | 93 | 1015.8 |
| 20260507060620 | 6 | 23 | 3.2 | 8.0 | 0.00 | 0.00 | 0.00 | 93 | 1015.8 |
| 20260507060118 | 6 | 11 | 1.6 | 4.8 | 0.00 | 0.00 | 0.00 | 93 | 1015.7 |
| 20260507054617 | 6 | 7 | 1.6 | 3.2 | 0.00 | 0.00 | 0.00 | 92 | 1015.7 |
| 20260507054118 | 6 | 7 | 0.0 | 0.0 | 0.00 | 0.00 | 0.00 | 92 | 1015.7 |
| 20260507053116 | 6 | 7 | 0.0 | 0.0 | 0.00 | 0.00 | 0.00 | 92 | 1015.5 |
| 20260507052616 | 6 | 7 | 0.0 | 0.0 | 0.00 | 0.00 | 0.00 | 92 | 1015.4 |
| 20260507052116 | 6 | 7 | 0.0 | 0.0 | 0.00 | 0.00 | 0.00 | 92 | 1015.4 |
| 20260507051617 | 6 | 7 | 0.0 | 0.0 | 0.00 | 0.00 | 0.00 | 92 | 1015.4 |
| 20260507051117 | 6 | 7 | 0.0 | 0.0 | 0.00 | 0.00 | 0.00 | 92 | 1015.3 |
| 20260507045613 | 5 | 7 | 0.0 | 0.0 | 0.00 | 0.00 | 0.00 | 91 | 1015.1 |
| 20260507045114 | 5 | 7 | 0.0 | 0.0 | 0.00 | 0.00 | 0.00 | 91 | 1015.1 |
| 20260507044612 | 5 | 7 | 0.0 | 0.0 | 0.00 | 0.00 | 0.00 | 91 | 1015.1 |
| 20260507044112 | 5 | 7 | 0.0 | 0.0 | 0.00 | 0.00 | 0.00 | 91 | 1015.1 |
| 20260507043612 | 5 | 7 | 0.0 | 0.0 | 0.00 | 0.00 | 0.00 | 91 | 1015.1 |
| 20260507042611 | 5 | 7 | 0.0 | 0.0 | 0.00 | 0.00 | 0.00 | 90 | 1015.0 |
| 20260507042111 | 5 | 7 | 0.0 | 0.0 | 0.00 | 0.00 | 0.00 | 90 | 1014.9 |
| 20260507041104 | 6 | 7 | 0.0 | 0.0 | 0.00 | 0.00 | 0.00 | 89 | 1014.9 |
| 20260507040603 | 6 | 7 | 0.0 | 0.0 | 0.00 | 0.00 | 0.00 | 89 | 1014.8 |
| 20260507040104 | 6 | 7 | 0.0 | 0.0 | 0.00 | 0.00 | 0.00 | 89 | 1014.8 |
| 20260507035604 | 6 | 7 | 0.0 | 0.0 | 0.00 | 0.00 | 0.00 | 89 | 1014.8 |
| 20260507035103 | 6 | 7 | 0.0 | 0.0 | 0.00 | 0.00 | 0.00 | 89 | 1014.7 |
| 20260507034104 | 6 | 7 | 0.0 | 0.0 | 0.00 | 0.00 | 0.00 | 88 | 1014.6 |
| 20260507033603 | 6 | 7 | 0.0 | 0.0 | 0.00 | 0.00 | 0.00 | 89 | 1014.5 |
| 20260507033103 | 6 | 7 | 0.0 | 0.0 | 0.00 | 0.00 | 0.00 | 88 | 1014.6 |
| 20260507032604 | 6 | 7 | 0.0 | 0.0 | 0.00 | 0.00 | 0.00 | 88 | 1014.5 |
| 20260507032105 | 6 | 7 | 0.0 | 1.6 | 0.00 | 0.00 | 0.00 | 88 | 1014.5 |
| 20260507031603 | 6 | 7 | 0.0 | 1.6 | 0.00 | 0.00 | 0.00 | 88 | 1014.5 |
| 20260507031103 | 7 | 7 | 0.0 | 1.6 | 0.00 | 0.00 | 0.00 | 88 | 1014.4 |
| 20260507030604 | 7 | 7 | 0.0 | 1.6 | 0.00 | 0.00 | 0.00 | 88 | 1014.4 |
| 20260507025605 | 7 | 7 | 0.0 | 3.2 | 0.00 | 0.00 | 0.00 | 87 | 1014.4 |
| 20260507025103 | 7 | 7 | 0.0 | 3.2 | 0.00 | 0.00 | 0.00 | 87 | 1014.4 |
| 20260507024603 | 7 | 7 | 0.0 | 1.6 | 0.00 | 0.00 | 0.00 | 87 | 1014.4 |
| 20260507024104 | 7 | 7 | 0.0 | 1.6 | 0.00 | 0.00 | 0.00 | 86 | 1014.4 |
| 20260507023605 | 7 | 7 | 0.0 | 1.6 | 0.00 | 0.00 | 0.00 | 86 | 1014.4 |
| 20260507023103 | 7 | 7 | 0.0 | 3.2 | 0.00 | 0.00 | 0.00 | 86 | 1014.4 |
| 20260507022605 | 7 | 7 | 1.6 | 3.2 | 0.00 | 0.00 | 0.00 | 86 | 1014.3 |
| 20260507021603 | 8 | 7 | 0.0 | 3.2 | 0.00 | 0.00 | 0.00 | 85 | 1014.2 |
| 20260507015603 | 8 | 7 | 0.0 | 3.2 | 0.00 | 0.00 | 0.00 | 85 | 1014.2 |
| 20260507015106 | 8 | 7 | 0.0 | 3.2 | 0.00 | 0.00 | 0.00 | 85 | 1014.1 |
| 20260507014103 | 8 | 7 | 1.6 | 4.8 | 0.00 | 0.00 | 0.00 | 85 | 1014.0 |
| 20260507013605 | 8 | 20 | 1.6 | 4.8 | 0.00 | 0.00 | 0.00 | 85 | 1013.9 |
| 20260507012604 | 8 | 28 | 3.2 | 8.0 | 0.00 | 0.00 | 0.00 | 85 | 1014.0 |
| 20260507012104 | 8 | 358 | 3.2 | 6.4 | 0.00 | 0.00 | 0.00 | 84 | 1014.0 |
| 20260507010605 | 8 | 344 | 1.6 | 9.7 | 0.00 | 0.00 | 0.00 | 84 | 1013.9 |
| 20260507005604 | 8 | 0 | 3.2 | 8.0 | 0.00 | 0.00 | 0.00 | 83 | 1013.8 |
| 20260507005105 | 8 | 312 | 3.2 | 8.0 | 0.00 | 0.00 | 0.00 | 83 | 1013.8 |
| 20260507004603 | 8 | 337 | 4.8 | 8.0 | 0.00 | 0.00 | 0.00 | 83 | 1013.8 |
| 20260507004103 | 8 | 0 | 3.2 | 8.0 | 0.00 | 0.00 | 0.00 | 83 | 1013.8 |
| 20260507003105 | 8 | 0 | 3.2 | 8.0 | 0.00 | 0.00 | 0.00 | 82 | 1013.7 |
| 20260507002604 | 8 | 21 | 3.2 | 8.0 | 0.00 | 0.00 | 0.00 | 82 | 1013.7 |
| 20260507002104 | 9 | 0 | 3.2 | 6.4 | 0.00 | 0.00 | 0.00 | 82 | 1013.7 |
| 20260507001605 | 9 | 355 | 3.2 | 11.3 | 0.00 | 0.00 | 0.00 | 82 | 1013.7 |
| 20260507001103 | 9 | 8 | 1.6 | 11.3 | 0.00 | 0.00 | 0.00 | 82 | 1013.6 |
| 20260506235606 | 9 | 0 | 3.2 | 8.0 | 0.00 | 0.00 | 0.00 | 81 | 1013.6 |
| 20260506235104 | 9 | 353 | 1.6 | 6.4 | 0.00 | 0.00 | 0.00 | 81 | 1013.6 |
| 20260506234104 | 10 | 338 | 4.8 | 16.1 | 0.00 | 0.00 | 0.00 | 80 | 1013.5 |
| 20260506233104 | 10 | 4 | 3.2 | 9.7 | 0.00 | 0.00 | 0.00 | 79 | 1013.5 |
| 20260506232604 | 10 | 18 | 4.8 | 14.5 | 0.00 | 0.00 | 0.00 | 79 | 1013.4 |
| 20260506231103 | 10 | 39 | 4.8 | 9.7 | 0.00 | 0.00 | 0.00 | 78 | 1013.5 |
| 20260506230603 | 10 | 30 | 4.8 | 14.5 | 0.00 | 0.00 | 0.00 | 78 | 1013.5 |
| 20260506225605 | 10 | 11 | 4.8 | 11.3 | 0.00 | 0.00 | 0.00 | 77 | 1013.3 |
| 20260506225103 | 10 | 45 | 4.8 | 9.7 | 0.00 | 0.00 | 0.00 | 77 | 1013.3 |
| 20260506224603 | 10 | 25 | 1.6 | 1.6 | 0.00 | 0.00 | 0.00 | 77 | 1013.3 |
| 20260506224104 | 10 | 30 | 3.2 | 8.0 | 0.00 | 0.00 | 0.00 | 77 | 1013.3 |
| 20260506223605 | 10 | 30 | 3.2 | 11.3 | 0.00 | 0.00 | 0.00 | 77 | 1013.3 |
| 20260506222606 | 10 | 21 | 3.2 | 8.0 | 0.00 | 0.00 | 0.00 | 77 | 1013.2 |
| 20260506222103 | 10 | 0 | 4.8 | 8.0 | 0.00 | 0.00 | 0.00 | 77 | 1013.2 |
| 20260506221604 | 10 | 11 | 3.2 | 6.4 | 0.00 | 0.00 | 0.00 | 77 | 1013.2 |
| 20260506221103 | 10 | 34 | 3.2 | 8.0 | 0.00 | 0.00 | 0.00 | 77 | 1013.2 |
| 20260506220603 | 10 | 31 | 3.2 | 8.0 | 0.00 | 0.00 | 0.00 | 77 | 1013.2 |
| 20260506220123 | 10 | 21 | 1.6 | 4.8 | 0.00 | 0.00 | 0.00 | 77 | 1013.2 |
| 20260506215602 | 10 | 21 | 3.2 | 6.4 | 0.00 | 0.00 | 0.00 | 77 | 1013.1 |
| 20260506215102 | 10 | 21 | 1.6 | 8.0 | 0.00 | 0.00 | 0.00 | 77 | 1013.1 |
| 20260506214559 | 11 | 13 | 3.2 | 8.0 | 0.00 | 0.00 | 0.00 | 77 | 1013.1 |
| 20260506213558 | 11 | 25 | 3.2 | 11.3 | 0.00 | 0.00 | 0.00 | 76 | 1012.9 |
| 20260506213057 | 11 | 14 | 4.8 | 9.7 | 0.00 | 0.00 | 0.00 | 77 | 1012.9 |
| 20260506212556 | 11 | 27 | 3.2 | 9.7 | 0.00 | 0.00 | 0.00 | 77 | 1012.9 |
| 20260506212057 | 11 | 3 | 4.8 | 9.7 | 0.00 | 0.00 | 0.00 | 77 | 1012.8 |
| 20260506211557 | 11 | 35 | 4.8 | 9.7 | 0.00 | 0.00 | 0.00 | 77 | 1012.8 |
| 20260506211055 | 11 | 35 | 6.4 | 9.7 | 0.00 | 0.00 | 0.00 | 77 | 1012.8 |
| 20260506210053 | 11 | 23 | 3.2 | 8.0 | 0.00 | 0.00 | 0.00 | 78 | 1012.7 |
| 20260506205553 | 11 | 32 | 3.2 | 8.0 | 0.00 | 0.00 | 0.00 | 78 | 1012.7 |
| 20260506205052 | 11 | 330 | 1.6 | 4.8 | 0.00 | 0.00 | 0.00 | 78 | 1012.6 |
| 20260506204551 | 11 | 312 | 3.2 | 4.8 | 0.00 | 0.00 | 0.00 | 78 | 1012.5 |
| 20260506204051 | 11 | 298 | 1.6 | 4.8 | 0.00 | 0.00 | 0.00 | 78 | 1012.5 |
| 20260506203553 | 11 | 286 | 0.0 | 6.4 | 0.00 | 0.00 | 0.00 | 78 | 1012.5 |
| 20260506203052 | 11 | 272 | 1.6 | 6.4 | 0.00 | 0.00 | 0.00 | 78 | 1012.4 |
| 20260506202045 | 11 | 52 | 0.0 | 1.6 | 0.00 | 0.00 | 0.00 | 77 | 1012.4 |
| 20260506201043 | 11 | 52 | 0.0 | 1.6 | 0.00 | 0.00 | 0.00 | 76 | 1012.4 |
| 20260506200541 | 11 | 52 | 0.0 | 1.6 | 0.00 | 0.00 | 0.00 | 76 | 1012.3 |
| 20260506200039 | 11 | 52 | 0.0 | 0.0 | 0.00 | 0.00 | 0.00 | 75 | 1012.3 |
| 20260506195038 | 11 | 52 | 0.0 | 0.0 | 0.00 | 0.00 | 0.00 | 74 | 1012.2 |
| 20260506194539 | 11 | 52 | 0.0 | 0.0 | 0.00 | 0.00 | 0.00 | 74 | 1012.2 |
| 20260506194037 | 11 | 52 | 0.0 | 0.0 | 0.00 | 0.00 | 0.00 | 73 | 1012.1 |
| 20260506192536 | 12 | 52 | 0.0 | 0.0 | 0.00 | 0.00 | 0.00 | 73 | 1011.9 |
| 20260506191533 | 12 | 52 | 0.0 | 0.0 | 0.00 | 0.00 | 0.00 | 72 | 1011.8 |
| 20260506191034 | 12 | 52 | 0.0 | 1.6 | 0.00 | 0.00 | 0.00 | 72 | 1011.7 |
| 20260506190033 | 12 | 52 | 0.0 | 0.0 | 0.00 | 0.00 | 0.00 | 71 | 1011.6 |
| 20260506185533 | 12 | 52 | 0.0 | 0.0 | 0.00 | 0.00 | 0.00 | 71 | 1011.5 |
| 20260506185032 | 12 | 52 | 0.0 | 1.6 | 0.00 | 0.00 | 0.00 | 71 | 1011.4 |
| 20260506184533 | 12 | 52 | 0.0 | 1.6 | 0.00 | 0.00 | 0.00 | 70 | 1011.3 |
| 20260506184032 | 12 | 52 | 0.0 | 0.0 | 0.00 | 0.00 | 0.00 | 70 | 1011.4 |
| 20260506183033 | 12 | 52 | 0.0 | 1.6 | 0.00 | 0.00 | 0.00 | 69 | 1011.3 |
| 20260506182533 | 12 | 52 | 0.0 | 1.6 | 0.00 | 0.00 | 0.00 | 69 | 1011.3 |
| 20260506182032 | 12 | 52 | 0.0 | 3.2 | 0.00 | 0.00 | 0.00 | 68 | 1011.2 |
| 20260506181032 | 12 | 52 | 1.6 | 3.2 | 0.00 | 0.00 | 0.00 | 68 | 1011.1 |
| 20260506180534 | 12 | 52 | 1.6 | 4.8 | 0.00 | 0.00 | 0.00 | 68 | 1011.1 |
| 20260506180034 | 12 | 52 | 1.6 | 4.8 | 0.00 | 0.00 | 0.00 | 67 | 1011.1 |
| 20260506175533 | 12 | 18 | 3.2 | 8.0 | 0.00 | 0.00 | 0.00 | 67 | 1011.0 |
| 20260506175033 | 12 | 18 | 1.6 | 8.0 | 0.00 | 0.00 | 0.00 | 66 | 1011.0 |
| 20260506174532 | 12 | 350 | 3.2 | 6.4 | 0.00 | 0.00 | 0.00 | 66 | 1010.9 |
| 20260506173532 | 13 | 63 | 1.6 | 4.8 | 0.00 | 0.00 | 0.00 | 66 | 1010.7 |
| 20260506173033 | 13 | 65 | 1.6 | 3.2 | 0.00 | 0.00 | 0.00 | 66 | 1010.6 |
| 20260506172028 | 13 | 65 | 1.6 | 3.2 | 0.00 | 0.00 | 0.00 | 66 | 1010.6 |
| 20260506171527 | 13 | 65 | 1.6 | 4.8 | 0.00 | 0.00 | 0.00 | 66 | 1010.5 |
| 20260506171023 | 13 | 65 | 1.6 | 4.8 | 0.00 | 0.00 | 0.00 | 66 | 1010.5 |
| 20260506170520 | 13 | 65 | 1.6 | 3.2 | 0.00 | 0.00 | 0.00 | 65 | 1010.4 |
| 20260506170024 | 13 | 65 | 1.6 | 6.4 | 0.00 | 0.00 | 0.00 | 65 | 1010.4 |
| 20260506165515 | 13 | 54 | 1.6 | 6.4 | 0.00 | 0.00 | 0.00 | 65 | 1010.4 |
| 20260506165013 | 13 | 110 | 3.2 | 6.4 | 0.00 | 0.00 | 0.00 | 64 | 1010.4 |
| 20260506164511 | 13 | 27 | 1.6 | 6.4 | 0.00 | 0.00 | 0.00 | 64 | 1010.5 |
| 20260506164010 | 13 | 27 | 3.2 | 6.4 | 0.00 | 0.00 | 0.00 | 63 | 1010.5 |
| 20260506163508 | 13 | 78 | 3.2 | 4.8 | 0.00 | 0.00 | 0.00 | 64 | 1010.5 |
| 20260506163010 | 13 | 80 | 3.2 | 4.8 | 0.00 | 0.00 | 0.00 | 64 | 1010.5 |
| 20260506162506 | 13 | 6 | 3.2 | 8.0 | 0.00 | 0.00 | 0.00 | 63 | 1010.5 |
| 20260506162006 | 13 | 0 | 3.2 | 8.0 | 0.00 | 0.00 | 0.00 | 62 | 1010.4 |
| 20260506161007 | 13 | 14 | 4.8 | 6.4 | 0.00 | 0.00 | 0.00 | 63 | 1010.4 |
| 20260506160010 | 13 | 94 | 4.8 | 9.7 | 0.00 | 0.00 | 0.00 | 63 | 1010.4 |
| 20260506155506 | 13 | 128 | 4.8 | 11.3 | 0.00 | 0.00 | 0.00 | 64 | 1010.4 |
| 20260506155006 | 13 | 138 | 4.8 | 11.3 | 0.00 | 0.00 | 0.00 | 64 | 1010.4 |
| 20260506154507 | 13 | 10 | 8.0 | 11.3 | 0.00 | 0.00 | 0.00 | 63 | 1010.4 |
| 20260506154007 | 13 | 82 | 3.2 | 11.3 | 0.00 | 0.00 | 0.00 | 64 | 1010.4 |
| 20260506153507 | 13 | 117 | 4.8 | 14.5 | 0.00 | 0.00 | 0.00 | 64 | 1010.4 |
| 20260506153005 | 13 | 114 | 4.8 | 14.5 | 0.00 | 0.00 | 0.00 | 64 | 1010.5 |
| 20260506152507 | 13 | 0 | 4.8 | 11.3 | 0.00 | 0.00 | 0.00 | 64 | 1010.4 |
| 20260506152004 | 13 | 113 | 6.4 | 16.1 | 0.00 | 0.00 | 0.00 | 64 | 1010.4 |
| 20260506151505 | 13 | 127 | 6.4 | 16.1 | 0.00 | 0.00 | 0.00 | 64 | 1010.5 |
| 20260506151007 | 13 | 23 | 6.4 | 16.1 | 0.00 | 0.00 | 0.00 | 63 | 1010.4 |
| 20260506150506 | 13 | 114 | 6.4 | 16.1 | 0.00 | 0.00 | 0.00 | 63 | 1010.4 |
| 20260506150008 | 13 | 31 | 4.8 | 14.5 | 0.00 | 0.00 | 0.00 | 62 | 1010.4 |
| 20260506145506 | 13 | 3 | 8.0 | 19.3 | 0.00 | 0.00 | 0.00 | 61 | 1010.4 |
| 20260506144506 | 13 | 17 | 6.4 | 11.3 | 0.00 | 0.00 | 0.00 | 61 | 1010.3 |
| 20260506144007 | 13 | 0 | 4.8 | 16.1 | 0.00 | 0.00 | 0.00 | 61 | 1010.3 |
| 20260506143505 | 13 | 31 | 8.0 | 20.9 | 0.00 | 0.00 | 0.00 | 60 | 1010.3 |
| 20260506143006 | 13 | 0 | 12.9 | 22.5 | 0.00 | 0.00 | 0.00 | 60 | 1010.4 |
| 20260506142504 | 13 | 6 | 11.3 | 22.5 | 0.00 | 0.00 | 0.00 | 60 | 1010.3 |
| 20260506142003 | 13 | 45 | 9.7 | 20.9 | 0.00 | 0.00 | 0.00 | 60 | 1010.2 |
| 20260506141507 | 13 | 18 | 8.0 | 14.5 | 0.00 | 0.00 | 0.00 | 61 | 1010.2 |
| 20260506140504 | 13 | 51 | 9.7 | 27.4 | 0.00 | 0.00 | 0.00 | 61 | 1010.3 |
| 20260506140003 | 13 | 21 | 14.5 | 27.4 | 0.00 | 0.00 | 0.00 | 61 | 1010.2 |
| 20260506135001 | 12 | 125 | 4.8 | 16.1 | 0.00 | 0.00 | 0.00 | 62 | 1010.2 |
| 20260506134504 | 12 | 20 | 8.0 | 20.9 | 0.00 | 0.00 | 0.00 | 63 | 1010.2 |
| 20260506134003 | 12 | 147 | 8.0 | 20.9 | 0.00 | 0.00 | 0.00 | 62 | 1010.2 |
| 20260506133502 | 12 | 30 | 6.4 | 16.1 | 0.00 | 0.00 | 0.00 | 62 | 1010.2 |
| 20260506133004 | 12 | 17 | 8.0 | 20.9 | 0.00 | 0.00 | 0.00 | 64 | 1010.2 |
| 20260506132502 | 13 | 13 | 6.4 | 27.4 | 0.00 | 0.00 | 0.00 | 63 | 1010.2 |
| 20260506131501 | 13 | 100 | 6.4 | 16.1 | 0.00 | 0.00 | 0.00 | 63 | 1010.2 |
| 20260506131000 | 13 | 140 | 4.8 | 30.6 | 0.00 | 0.00 | 0.00 | 63 | 1010.1 |
| 20260506130001 | 13 | 0 | 9.7 | 22.5 | 0.00 | 0.00 | 0.00 | 62 | 1010.1 |
| 20260506125001 | 13 | 320 | 8.0 | 20.9 | 0.00 | 0.00 | 0.00 | 61 | 1010.0 |